Location: *
(45.8589°N, 4.7139°E)
Time: 03:12:16
(UTC+00:00)

NOSS 3-4 (A) - Pass Details

Date: 09 April 2020
Orbit: 895 x 1317 km, 63.4° (Epoch: 30 May)

Event Time Altitude Azimuth Distance (km) Brightness Sun altitude
Rises 19:25:18 0° 320° (NW) 3,837 7.9 -11.5°
Reaches altitude 10° 19:27:50 10° 318° (NW) 2,937 7.2 -11.9°
Maximum altitude 19:34:50 71° 236° (WSW) 1,234 4.1 -13.0°
Drops below altitude 10° 19:42:32 10° 155° (SSE) 3,218 5.7 -14.2°
Enters shadow 19:42:35 10° 155° (SSE) 3,234 5.7 -14.2°
